Location: Saint Louis
(38.6272°N, 90.1978°W)
Time: 17:16:19
(UTC-05:00)

ISS - Pass Details

Date: 19 March 2013
Orbit: 402 x 403 km, 51.6° (Epoch: 27 June)

Event Time Altitude Azimuth Distance (km) Brightness Sun altitude
Exits shadow 06:03:07 10° 313° (NW) 1,561 -0.7 -13.0°
Reaches altitude 10° 06:03:08 10° 313° (NW) 1,556 -0.7 -13.0°
Maximum altitude 06:04:57 13° 344° (NNW) 1,366 -0.7 -12.6°
Drops below altitude 10° 06:06:46 10° 16° (NNE) 1,566 0.0 -12.3°
Sets 06:09:49 0° 44° (NE) 2,444 1.6 -11.7°
